Regional Weather Roundup
Issued by NWS State College, PA

Home | Current Version | Previous Version | Graphics & Text | Print | Product List | Glossary Off
Versions: 1 2 3 4 5 6 7 8 9 10 11 12 13 14 15 16 17 18 19 20 21 22 23 24 25 26 27 28 29 30 31 32 33 34 35 36 37 38 39 40 41 42 43 44 45 46 47 48 49 50

000
ASUS41 KCTP 272110
RWRCTP

REGIONAL WEATHER ROUNDUP
NATIONAL WEATHER SERVICE STATE COLLEGE PA
400 PM EST TUE JAN 27 2015

Note: "fair" indicates few or no clouds below 12,000 feet with no
significant weather and/or obstructions to visibility.

* = STATION THAT DOES NOT REPORT PRECIPITATION /E.G. RAIN...SNOW...ETC/
    THUNDER OR FOG.

PAZ002>004-007>009-013>016-020>023-029>032-272200-
WESTERN PENNSYLVANIA

CITY           SKY/WX    TMP DP  RH WIND       PRES   REMARKS
ERIE           CLOUDY    19  12  74 N9        30.07R WCI   8
MEADVILLE      LGT SNOW  17  11  77 N8        29.99R VSB 3/4 WCI   7
FRANKLIN*      CLOUDY    18  10  73 N3        29.97R
NEW CASTLE     LGT SNOW  19  14  81 NW12      30.03R WCI   7
BEAVER COUNTY  LGT SNOW  21  14  73 NW8       29.99R WCI  12
BUTLER*        CLOUDY    21  14  73 NW6       29.98R WCI  14
PITTSBURGH INT LGT SNOW  21  15  78 NW13      29.98R WCI   9
PITTSBURGH     CLOUDY    21  13  71 NW7       29.96R HAZE    WCI  12
INDIANA*       CLOUDY    23  18  80 NW7       29.96R WCI  15
LATROBE        LGT SNOW  23  18  80 W7        29.97R FOG     WCI  15
WASHINGTON CO* CLOUDY    21  18  86 MISG      30.00R
$$

PAZ004>006-010>012-017>019-024>028-033>037-041-042-045-046-049>053-272200-
CENTRAL PENNSYLVANIA

CITY           SKY/WX    TMP DP  RH WIND       PRES   REMARKS
BRADFORD       CLOUDY    17   4  56 N10       29.86R WCI   5
DUBOIS         CLOUDY    20  14  77 NW6       29.87R WCI  12
CLEARFIELD     CLOUDY    23  14  68 NW10      29.87R WCI  12
JOHNSTOWN      LGT SNOW  18  13  80 NW15      29.82R WCI   4
ALTOONA        CLOUDY    23  16  74 NW13      29.85R WCI  11
STATE COLLEGE  PTSUNNY   27  16  63 NW10      29.84R
WILLIAMSPORT   CLOUDY    27   5  39 N13       29.85R
SELINSGROVE    MOSUNNY   31   9  39 N15       29.82R
FT INDIANTOWN  SUNNY     31   8  36 NW17G28   29.77S
CAPITAL CITY   SUNNY     33  16  49 NW13      29.80S
HARRISBURG     PTSUNNY   31  17  56 NW18      29.78S
YORK           PTSUNNY   31  17  56 NW18      29.78F
$$

PAZ038>040-043-044-047-048-054-055-060>062-067>071-272200-
EASTERN PENNSYLVANIA

CITY           SKY/WX    TMP DP  RH WIND       PRES   REMARKS
SCRANTON       MOSUNNY   21   6  52 NW18G24   29.77R WCI   6
MOUNT POCONO   MOSUNNY   19   6  57 NW18G30   29.61F WCI   4
ALLENTOWN      PTSUNNY   29   7  39 NW15      29.71S
QUAKERTOWN*    NOT AVBL
READING        MOSUNNY   30  13  49 NW16      29.74S
LANCASTER      PTSUNNY   30  12  47 NW14      29.75S
COATESVILLE    CLEAR     30  14  51 NW13G24   29.72S
POTTSTOWN      MOSUNNY   31  13  47 W14G21    29.73R
BLUE BELL      CLOUDY    32  12  43 NW8       29.70S
DOYLESTOWN     CLOUDY    28  13  53 NW13G18   29.68S
WILLOW GROVE   NOT AVBL
NORTH PHILA    CLOUDY    32  10  40 NW15G21   29.72R
PHILADELPHIA   PTSUNNY   34  11  38 NW22      29.72R
$$


USA.gov is the U.S. government's official web portal to all federal, state and local government web resources and services.